TimeMDT,TemperatureF,Dew PointF,Humidity,Sea Level PressureIn,VisibilityMPH,Wind Direction,Wind SpeedMPH,Gust SpeedMPH,PrecipitationIn,Events,Conditions,WindDirDegrees,DateUTC
12:08 AM,8.6,8.6,100,29.92,1.0,West,5.8,-,N/A,,Clear,260,2013-04-11 06:08:00
12:12 AM,8.6,8.6,100,29.92,3.0,West,4.6,-,N/A,,Clear,260,2013-04-11 06:12:00
12:16 AM,8.6,8.6,100,29.92,1.8,Calm,Calm,-,N/A,,Clear,0,2013-04-11 06:16:00
12:20 AM,6.8,5.0,92,29.92,0.2,Calm,Calm,-,N/A,Fog,Light Freezing Fog,0,2013-04-11 06:20:00
12:27 AM,6.8,3.2,85,29.92,0.2,Calm,Calm,-,N/A,Fog,Light Freezing Fog,0,2013-04-11 06:27:00
12:53 AM,3.9,3.0,96,30.11,0.2,SE,4.6,-,N/A,Fog,Light Freezing Fog,130,2013-04-11 06:53:00
12:56 AM,3.2,1.4,92,29.91,1.0,SSE,4.6,-,N/A,,Overcast,150,2013-04-11 06:56:00
1:07 AM,5.0,3.2,92,29.91,0.5,Calm,Calm,-,N/A,Fog,Light Freezing Fog,0,2013-04-11 07:07:00
1:15 AM,6.8,3.2,85,29.91,0.2,Calm,Calm,-,N/A,Fog,Light Freezing Fog,0,2013-04-11 07:15:00
1:36 AM,3.2,1.4,92,29.90,1.0,Calm,Calm,-,N/A,,Mist,0,2013-04-11 07:36:00
1:53 AM,3.9,1.9,91,30.07,0.8,West,3.5,-,N/A,,Mist,270,2013-04-11 07:53:00
1:58 AM,1.4,1.4,100,29.88,0.2,West,3.5,-,N/A,Fog,Light Freezing Fog,280,2013-04-11 07:58:00
2:22 AM,1.4,-0.4,92,29.87,1.0,WSW,3.5,-,N/A,,Mist,250,2013-04-11 08:22:00
2:25 AM,3.2,-0.4,85,29.86,2.0,WSW,3.5,-,N/A,,Scattered Clouds,240,2013-04-11 08:25:00
2:33 AM,3.2,-0.4,85,29.86,5.0,WSW,5.8,-,N/A,,Partly Cloudy,250,2013-04-11 08:33:00
2:53 AM,1.9,-0.9,88,30.05,7.0,WSW,3.5,-,N/A,,Clear,250,2013-04-11 08:53:00
3:28 AM,1.4,-0.4,92,29.84,6.0,WSW,3.5,-,N/A,,Scattered Clouds,240,2013-04-11 09:28:00
3:53 AM,1.0,-0.9,91,30.02,5.0,WSW,4.6,-,N/A,,Partly Cloudy,240,2013-04-11 09:53:00
4:19 AM,-0.4,-2.2,92,29.82,7.0,WSW,4.6,-,N/A,,Mostly Cloudy,240,2013-04-11 10:19:00
4:36 AM,1.4,-0.4,92,29.82,7.0,WSW,8.1,-,N/A,,Scattered Clouds,250,2013-04-11 10:36:00
4:53 AM,1.9,-0.9,88,30.01,8.0,SW,9.2,-,N/A,,Partly Cloudy,230,2013-04-11 10:53:00
5:53 AM,1.9,-0.9,88,29.99,8.0,WSW,6.9,-,N/A,,Clear,240,2013-04-11 11:53:00
6:53 AM,6.1,3.9,91,29.98,7.0,WSW,3.5,-,N/A,,Clear,250,2013-04-11 12:53:00
7:53 AM,8.1,6.1,92,29.98,8.0,WSW,8.1,-,N/A,,Clear,250,2013-04-11 13:53:00
8:53 AM,15.1,14.0,95,29.99,8.0,Calm,Calm,-,0.00,,Clear,0,2013-04-11 14:53:00
9:53 AM,19.9,16.0,85,29.97,8.0,West,6.9,-,0.01,,Overcast,280,2013-04-11 15:53:00
11:53 AM,24.1,19.9,84,29.99,10.0,West,10.4,-,N/A,,Overcast,270,2013-04-11 17:53:00
12:53 PM,28.0,21.9,78,29.96,10.0,WNW,5.8,-,N/A,,Mostly Cloudy,290,2013-04-11 18:53:00
1:53 PM,28.0,19.9,72,29.96,10.0,West,6.9,-,N/A,,Overcast,280,2013-04-11 19:53:00
2:53 PM,28.9,21.0,72,29.94,10.0,West,5.8,-,N/A,,Overcast,280,2013-04-11 20:53:00
3:53 PM,30.0,21.9,72,29.95,10.0,NW,4.6,-,N/A,,Overcast,310,2013-04-11 21:53:00
4:53 PM,30.9,23.0,72,29.96,10.0,North,3.5,-,N/A,,Overcast,360,2013-04-11 22:53:00
5:53 PM,30.0,21.9,72,29.99,10.0,NE,8.1,-,N/A,,Overcast,40,2013-04-11 23:53:00
6:22 PM,28.4,21.2,74,29.81,7.0,ENE,9.2,-,N/A,,Overcast,60,2013-04-12 00:22:00
6:53 PM,28.9,21.9,75,29.99,7.0,NE,8.1,-,N/A,,Overcast,50,2013-04-12 00:53:00
7:53 PM,30.0,21.9,72,30.00,9.0,Calm,Calm,-,N/A,,Overcast,0,2013-04-12 01:53:00
8:53 PM,30.0,21.9,72,30.00,9.0,Calm,Calm,-,N/A,,Overcast,0,2013-04-12 02:53:00
9:53 PM,30.0,23.0,75,30.00,9.0,SW,5.8,-,N/A,,Overcast,230,2013-04-12 03:53:00
10:53 PM,30.0,24.1,79,29.99,8.0,WSW,5.8,-,N/A,,Overcast,240,2013-04-12 04:53:00
11:53 PM,30.0,25.0,82,29.99,9.0,WSW,4.6,-,N/A,,Overcast,240,2013-04-12 05:53:00